SCP
0 0 0 0 0 0 0 0 0 0 0 0 0 0 0 0 0 0 0 0 0 0 0 0 0 0 0 0 0 0 0 0 0 0 0 0 0 0 0 0 0 0 0 0
0 0 0 0 0 0 0 0 0 0 0 0 0 0 0 0 0 0 0 0 0 0 0 0 0 0 0 0 0 0 0 0 0 0 0 0 0 0 0 0 0 0 0 0
0 0 0 0 0 0 0 0 0 0 0 0 0 0 0 0 0 0 0 0 0 0 0 0 0 0 0 0 0 0 0 0 0 0 0 0 0 0 0 0 0 0 0 0
0 0 0 0 0 0 0 0 0 0 0 0 0 0 0 0 0 0 0 0 0 0 0 0 0 0 0 0 0 0 0 0 0 0 0 0 0 0 0 0 0 0 0 0
0 0 0 0 0 0 0 0 0 0 0 0 0 0 0 0 0 0 0 0 0 0 0 0 0 0 0 0 0 0 0 0 0 0 0 0 0 0 0 0 0 0 0 0
0 0 0 0 0 0 0 0 0 0 0 0 0 0 0 0 0 0 0 0 0 0 0 0 0 0 0 0 0 0 0 0 0 0 0 0 0 0 0 0 0 0 0 0
0 0 0 0 0 0 0 0 0 0 0 0 0 0 0 0 0 0 0 0 0 0 0 0 0 0 0 0 0 0 0 0 0 0 0 0 0 0 0 0 0 0 0 0
0 0 0 0 0 0 0 0 0 0 0 0 0 0 0 0 0 0 0 0 0 0 0 0 0 0 0 0 0 0 0 0 0 0 0 0 0 0 0 0 0 0 0 0
0 0 0 0 0 0 0 0 0 0 0 0 0 0 0 0 0 0 0 0 0 0 0 0 0 0 0 0 0 0 0 0 0 0 0 0 0 0 0 0 0 0 0 0
0 0 0 0 0 0 0 0 0 0 0 0 0 0 0 0 0 0 0 0 0 0 0 0 0 0 0 0 0 0 0 0 0 0 0 0 0 0 0 0 0 0 0 0
0 0 0 0 0 0 0 0 0 0 0 0 0 0 0 0 0 0 0 0 0 0 0 0 0 0 0 0 0 0 0 0 0 0 0 0 0 0 0 0 0 0 0 0
0 0 0 0 0 0 0 0 0 0 0 0 0 0 0 0 0 0 0 0 0 0 0 0 0 0 0 0 0 0 0 0 0 0 0 0 0 0 0 0 0 0 0 0
0 0 0 0 0 0 0 0 0 0 0 0 0 0 0 0 0 0 0 0 0 0 0 0 0 0 0 0 0 0 0 0 0 0 0 0 0 0 0 0 0 0 0 0
0 0 0 0 0 0 0 0 0 0 0 0 0 0 0 0 0 0 0 0 0 0 0 0 0 0 0 0 0 0 0 0 0 0 0 0 0 0 0 0 0 0 0 0
0 0 0 0 0 0 0 0 0 0 0 0 0 0 0 0 0 0 0 0 0 0 0 0 0 0 0 0 0 0 0 0 0 0 0 0 0 0 0 0 0 0 0 0
0 0 0 0 0 0 0 0 0 0 0 0 0 0 0 0 0 0 0 0 0 0 0 0 0 0 0 0 0 0 0 0 0 0 0 0 0 0 0 0 0 0 0 0
0 0 0 0 0 0 0 0 0 0 0 0 0 0 0 0 0 0 0 0 0 0 0 0 0 0 0 0 0 0 0 0 0 0 0 0 0 0 0 0 0 0 0 0
0 0 0 0 0 0 0 0 0 0 0 0 0 0 0 0 0 0 0 0 0 0 0 0 0 0 0 0 0 0 0 0 0 0 0 0 0 0 0 0 0 0 0 0
0 0 0 0 0 0 0 0 0 0 0 0 0 0 0 0 0 0 0 0 0 0 0 0 0 0 0 0 0 0 0 0 0 0 0 0 0 0 0 0 0 0 0 0
0 0 0 0 0 0 0 0 0 0 0 0 0 0 0 0 0 0 0 0 0 0 0 0 0 0 0 0 0 0 0 0 0 0 0 0 0 0 0 0 0 0 0 0
0 0 0 0 0 0 0 0 0 0 0 0 0 0 0 0 0 0 0 0 0 0 0 0 0 0 0 0 0 0 0 0 0 0 0 0 0 0 0 0 0 0 0 0
0 0 0 0 0 0 0 0 0 0 0 0 0 0 0 0 0 0 0 0 0 0 0 0 0 0 0 0 0 0 0 0 0 0 0 0 0 0 0 0 0 0 0 0
0 0 0 0 0 0 0 0 0 0 0 0 0 0 0 0 0 0 0 0 0 0 0 0 0 0 0 0 0 0 0 0 0 0 0 0 0 0 0 0 0 0 0 0
0 0 0 0 0 0 0 0 0 0 0 0 0 0 0 0 0 0 0 0 0 0 0 0 0 0 0 0 0 0 0 0 0 0 0 0 0 0 0 0 0 0 0 0
0 0 0 0 0 0 0 0 0 0 0 0 0 0 0 0 0 0 0 0 0 0 0 0 0 0 0 0 0 0 0 0 0 0 0 0 0 0 0 0 0 0 0 0
0 0 0 0 0 0 0 0 0 0 0 0 0 0 0 0 0 0 0 0 0 0 0 0 0 0 0 0 0 0 0 0 0 0 0 0 0 0 0 0 0 0 0 0
0 0 0 0 0 0 0 0 0 0 0 0 0 0 0 0 0 0 0 0 0 0 0 0 0 0 0 0 0 0 0 0 0 0 0 0 0 0 0 0 0 0 0 0
Wind_Speed
8 6 10 12 15 17 18 16 12 11 12 10 6 5 5 4 4 4 3 4 5 5 5 6 6 6 6 6 7 7 7 7 7 6 6 6 6 6 6 6 6 5 5 4
10 8 7 9 14 17 18 17 16 14 14 8 6 3 3 3 3 3 3 3 4 5 5 6 7 7 7 7 7 7 7 7 6 6 6 6 6 6 5 5 5 5 5 5
8 7 5 12 14 15 15 14 14 17 15 7 7 6 4 3 3 3 3 3 3 4 5 5 6 6 7 7 6 7 7 6 6 6 6 5 5 5 5 5 5 5 5 5
4 5 11 9 8 13 15 15 14 12 8 7 7 4 3 3 3 3 3 2 2 2 3 3 4 5 5 6 6 6 6 5 5 5 5 5 5 5 4 4 4 4 4 5
4 7 8 6 8 11 13 13 12 12 10 8 5 2 3 3 3 3 2 3 2 3 3 4 5 6 6 6 6 6 6 5 5 5 5 5 5 5 4 3 3 3 3 4
5 6 9 6 8 6 5 9 10 11 11 8 6 5 6 4 4 4 4 4 3 3 4 5 5 6 6 5 5 5 5 4 4 5 5 5 4 4 3 3 3 3 3 3
7 6 8 4 6 9 8 9 6 9 8 8 9 7 5 6 5 5 5 5 4 5 4 4 5 6 6 5 4 4 5 4 4 4 4 4 3 3 2 2 2 2 3 3
9 8 10 5 8 10 6 2 3 5 6 6 5 5 6 6 6 6 6 5 5 5 4 4 5 6 6 5 4 5 5 4 4 3 3 3 3 2 2 2 2 3 3 3
10 10 4 10 8 7 4 3 3 4 4 6 6 5 5 6 6 6 6 5 5 5 5 4 4 6 6 5 5 5 5 4 3 3 3 3 3 2 2 2 2 2 2 3
5 7 7 8 6 5 4 4 4 5 6 6 6 6 6 6 6 6 6 6 5 6 6 5 5 5 5 5 5 5 5 4 3 3 2 2 1 2 2 2 2 3 3 4
7 4 5 7 8 7 5 4 4 5 5 7 7 6 6 6 6 6 6 5 5 6 6 5 5 5 5 5 5 5 4 3 3 2 2 1 1 2 2 3 4 4 4 4
8 7 6 7 8 8 7 7 7 6 5 5 7 7 6 6 6 6 6 6 6 6 6 6 5 5 5 5 5 5 4 3 2 1 1 1 1 2 3 5 7 8 9 8
5 5 4 4 5 7 8 8 7 7 7 6 6 7 7 6 6 6 7 7 7 6 6 6 5 5 4 4 4 4 3 2 1 1 1 1 1 1 3 5 7 9 10 12
3 3 3 3 4 5 6 6 6 6 5 6 6 7 7 7 7 7 7 6 7 7 6 6 6 5 4 4 4 3 2 1 1 1 1 1 2 2 3 4 5 4 7 12
4 4 5 4 4 5 6 7 8 7 6 6 6 7 8 8 8 7 7 7 7 7 6 6 6 4 4 4 3 2 2 1 1 1 1 1 2 3 3 4 4 5 4 6
5 4 4 6 6 7 7 7 8 8 7 7 7 7 7 8 8 8 7 7 7 7 6 5 5 4 4 3 2 1 1 1 1 1 1 2 2 3 3 4 5 5 5 5
8 7 6 7 7 7 7 7 8 8 8 8 8 9 9 9 9 8 6 6 6 5 5 5 4 4 3 2 2 1 1 1 3 2 2 3 3 4 4 4 5 6 6 8
8 9 9 9 9 8 7 7 7 8 8 8 10 10 10 10 9 8 7 7 6 5 4 4 4 3 2 2 1 1 1 1 2 2 3 3 4 4 4 5 6 7 6 7
4 5 5 6 7 8 8 7 8 8 9 10 10 9 8 8 8 8 7 7 6 5 3 4 4 2 1 1 0 0 1 2 3 3 3 6 6 4 4 5 5 6 6 6
5 7 8 8 8 8 8 9 9 9 8 9 10 10 9 8 7 7 6 4 3 3 4 3 2 1 1 1 1 1 2 3 3 3 4 4 4 5 5 5 6 6 7 7
8 9 10 10 9 8 8 9 10 10 9 9 10 10 9 7 6 6 6 4 2 4 4 3 1 1 1 1 2 2 2 3 3 4 4 4 5 5 6 6 7 8 8 8
8 9 10 10 11 9 8 8 9 10 10 9 9 9 9 7 6 5 4 3 3 4 2 1 1 1 2 3 2 2 3 3 4 4 4 4 5 6 6 7 7 8 8 7
8 9 10 10 11 11 10 9 9 9 9 9 9 8 7 6 4 4 3 2 2 2 1 0 1 3 6 3 2 3 3 4 4 4 4 5 5 6 7 8 8 8 7 8
10 10 10 10 11 12 11 9 8 8 8 8 7 6 6 5 4 3 3 3 2 1 0 1 4 6 6 2 2 3 3 4 4 5 5 6 6 6 7 8 8 8 8 10
10 10 11 11 10 8 9 9 9 8 8 7 6 6 4 3 3 3 2 2 1 2 1 2 5 7 4 2 3 3 4 4 6 6 6 6 6 7 7 8 8 8 9 9
9 8 7 7 7 7 6 6 6 5 6 6 5 4 4 3 3 2 2 1 0 2 2 1 2 4 2 3 3 4 5 6 7 6 6 7 8 8 8 9 10 9 9 10
9 8 7 8 7 6 5 5 6 5 5 5 4 3 3 2 2 2 1 1 1 1 1 2 2 2 3 4 4 5 5 6 6 6 7 7 8 8 9 10 9 9 9 10
Wind_Direction
242 234 184 195 205 211 219 223 228 235 239 243 240 217 208 200 196 195 192 180 185 185 186 181 179 180 180 180 175 170 169 172 174 167 161 158 157 158 160 165 172 175 180 190
241 248 229 213 209 212 221 228 238 250 255 252 269 268 238 219 207 207 205 195 190 185 184 185 183 181 177 176 171 163 167 171 163 159 159 160 160 160 164 171 175 178 189 198
226 226 248 239 215 214 218 221 223 237 244 249 253 248 240 234 228 220 206 192 187 189 191 186 182 174 173 169 158 159 163 161 159 159 161 162 160 162 172 178 180 190 198 203
202 191 228 237 200 209 221 227 222 230 235 230 234 234 229 218 212 209 186 169 170 167 163 158 149 148 148 144 147 152 155 159 160 159 160 158 161 173 178 179 187 197 206 212
185 208 248 242 208 198 209 232 220 225 228 223 212 237 261 220 172 155 147 143 143 134 134 130 131 133 131 137 141 146 156 162 162 159 159 163 173 180 181 181 196 205 210 217
184 201 227 225 188 173 180 247 222 213 216 205 172 206 233 173 146 136 116 105 101 98 101 112 122 123 127 136 140 150 153 149 145 149 157 168 177 179 177 182 201 209 225 229
196 216 247 234 158 135 177 233 210 201 198 183 187 199 172 141 134 129 120 114 107 104 105 114 116 118 126 128 139 136 127 127 133 142 154 161 163 166 170 181 197 221 240 247
196 212 232 167 150 175 203 179 158 168 169 164 161 145 140 140 138 132 128 123 119 114 110 107 113 119 122 127 125 115 118 124 129 133 137 140 151 166 174 183 208 235 248 263
195 212 194 168 189 202 174 167 163 153 146 143 146 154 149 145 146 145 143 138 129 126 120 110 112 121 126 128 120 118 121 127 129 128 134 149 164 180 190 196 215 240 248 260
207 210 193 191 202 196 186 179 164 152 149 149 156 156 153 151 150 146 141 139 134 130 127 122 117 118 125 125 124 125 130 133 135 139 151 169 181 184 196 213 227 241 251 261
225 208 174 204 206 195 187 164 150 145 152 158 154 157 159 157 154 147 140 135 132 134 133 129 122 120 120 123 125 126 130 133 138 147 162 190 211 215 220 223 227 242 243 245
213 196 190 212 210 191 180 185 176 162 160 157 155 157 151 149 144 138 136 132 131 132 132 129 125 122 119 121 125 128 129 132 139 149 173 206 249 299 284 272 280 280 279 279
213 195 198 204 205 188 181 181 174 167 164 157 150 148 144 139 135 131 133 138 141 139 133 129 124 118 114 113 115 121 132 142 147 168 200 227 243 259 291 303 293 289 289 291
195 164 202 210 193 168 154 148 141 136 138 138 136 132 131 129 131 136 142 141 134 130 129 127 123 119 114 109 109 115 122 145 173 194 210 230 247 258 265 279 293 292 292 295
205 189 188 175 150 135 126 127 131 137 134 128 128 132 137 140 142 138 131 128 126 125 126 125 123 120 112 110 115 127 139 165 180 211 238 252 258 266 271 275 279 286 290 293
181 162 159 159 156 151 148 152 154 156 149 142 137 134 131 130 127 125 125 130 133 136 134 129 128 125 116 117 124 137 168 231 260 253 260 268 268 270 273 275 278 281 283 285
168 183 183 178 175 173 171 167 160 154 148 144 140 132 127 125 123 122 119 115 118 123 126 128 127 117 116 126 137 159 184 241 275 275 257 258 262 264 267 271 275 278 278 285
189 189 183 175 172 166 159 148 143 142 142 138 134 133 136 138 137 132 126 117 111 106 108 117 117 114 122 132 136 165 221 244 255 259 264 266 271 265 268 271 275 279 283 290
169 162 154 148 149 146 142 137 133 130 130 134 135 134 128 126 127 128 126 126 129 133 136 127 123 120 144 162 153 212 251 259 266 269 269 280 286 277 275 276 278 281 285 288
131 122 113 107 108 119 124 125 124 124 126 126 123 119 118 120 124 124 120 117 134 142 136 129 125 144 162 187 263 243 254 260 265 271 273 272 275 278 278 279 281 282 283 283
119 114 112 110 106 106 115 123 125 123 120 120 124 126 124 122 121 122 120 115 116 117 117 118 120 153 173 261 289 262 261 267 271 273 276 277 279 281 282 282 284 285 285 285
118 117 115 114 112 106 102 105 112 115 114 111 112 116 117 116 112 101 100 127 130 116 103 112 149 237 285 303 282 273 274 276 278 278 278 278 280 283 285 285 285 287 287 286
113 114 113 112 112 107 97 96 100 106 111 114 118 120 119 117 118 119 113 115 112 99 77 164 279 302 310 315 289 284 283 282 281 280 280 281 281 281 283 284 285 286 286 286
107 105 105 105 105 104 100 94 92 94 96 96 97 104 110 107 88 82 107 111 95 39 39 293 310 311 318 317 295 288 285 284 282 282 281 280 280 280 281 284 285 285 285 286
101 102 104 107 105 104 105 104 99 96 95 93 89 82 80 91 108 106 98 104 78 359 350 316 316 319 321 297 287 284 283 280 283 285 279 282 283 284 284 283 283 285 285 284
101 101 98 96 102 109 112 111 108 107 106 103 93 86 84 85 92 96 99 102 46 330 329 310 303 307 294 286 286 286 284 289 292 289 284 284 284 284 284 284 283 283 283 282
92 94 95 92 87 90 95 100 103 103 103 107 102 91 89 87 87 84 72 49 354 327 307 298 293 288 286 286 286 284 282 281 281 280 281 282 282 283 283 283 283 282 282 281